Location: Newark
(42.8481°N, 0.4872°E)
Time: 18:08:23
(UTC+00:00)

Vanguard 2 - Pass Details

Date: 29 October 2020
Orbit: 554 x 2937 km, 32.9° (Epoch: 24 November)

Event Time Altitude Azimuth Distance (km) Brightness Sun altitude
Rises 18:15:58 0° 220° (SW) 4,812 12.3 -15.5°
Reaches altitude 10° 18:19:02 10° 212° (SSW) 4,128 11.7 -16.1°
Maximum altitude 18:29:39 39° 149° (SSE) 3,236 10.4 -18.1°
Enters shadow 18:38:27 23° 102° (ESE) 4,473 10.8 -19.7°
Drops below altitude 10° 18:44:22 10° 90° (E) 5,692 - -20.7°
Sets 18:49:27 0° 84° (E) 6,788 - -21.7°
